Time,TemperatureF,DewpointF,PressureIn,WindDirection,WindDirectionDegrees,WindSpeedMPH,WindSpeedGustMPH,Humidity,HourlyPrecipIn,Conditions,Clouds,dailyrainin,SoftwareType,DateUTC
2013-02-17 00:00:00,30.6,19.1,29.71,North,358,13.0,20.0,62,0.00,OVC,OVC,0.00,WeatherDisplay:10.31,2013-02-17 05:00:00,
2013-02-17 00:10:00,30.4,18.5,29.72,North,357,10.0,20.0,61,0.00,OVC,OVC,0.00,WeatherDisplay:10.31,2013-02-17 05:10:00,
2013-02-17 00:20:00,30.6,18.3,29.72,North,1,7.0,17.0,60,0.00,OVC,OVC,0.00,WeatherDisplay:10.31,2013-02-17 05:20:00,
2013-02-17 00:30:00,30.7,18.1,29.70,North,7,8.0,22.0,59,0.00,OVC,OVC,0.00,WeatherDisplay:10.31,2013-02-17 05:30:00,
2013-02-17 00:40:00,30.8,16.9,29.71,North,5,13.0,24.0,56,0.00,OVC,OVC,0.00,WeatherDisplay:10.31,2013-02-17 05:40:00,
2013-02-17 00:50:00,30.9,16.2,29.69,NNE,16,7.0,21.0,54,0.00,OVC,OVC,0.00,WeatherDisplay:10.31,2013-02-17 05:50:00,
2013-02-17 01:00:00,31.0,16.3,29.68,North,357,12.0,18.0,54,0.00,OVC,OVC,0.00,WeatherDisplay:10.31,2013-02-17 06:00:00,
2013-02-17 01:10:00,31.0,16.3,29.68,North,358,9.0,16.0,54,0.00,OVC,OVC,0.00,WeatherDisplay:10.31,2013-02-17 06:10:00,
2013-02-17 01:20:00,31.0,15.4,29.68,North,356,5.0,17.0,52,0.00,OVC,OVC,0.00,WeatherDisplay:10.31,2013-02-17 06:20:00,
2013-02-17 01:30:00,30.8,15.2,29.68,North,356,6.0,20.0,52,0.00,OVC,OVC,0.00,WeatherDisplay:10.31,2013-02-17 06:30:00,
2013-02-17 01:40:00,30.7,15.1,29.69,North,2,7.0,15.0,52,0.00,OVC,OVC,0.00,WeatherDisplay:10.31,2013-02-17 06:40:00,
2013-02-17 01:50:00,30.7,14.7,29.69,NNW,345,7.0,15.0,51,0.00,OVC,OVC,0.00,WeatherDisplay:10.31,2013-02-17 06:50:00,
2013-02-17 02:00:00,30.6,14.6,29.68,North,349,12.0,22.0,51,0.00,OVC,OVC,0.00,WeatherDisplay:10.31,2013-02-17 07:00:00,
2013-02-17 02:10:00,30.4,14.4,29.68,NNW,343,7.0,17.0,51,0.00,OVC,OVC,0.00,WeatherDisplay:10.31,2013-02-17 07:10:00,
2013-02-17 02:20:00,30.2,13.8,29.68,NNW,344,8.0,21.0,50,0.00,OVC,OVC,0.00,WeatherDisplay:10.31,2013-02-17 07:20:00,
2013-02-17 02:30:00,30.1,13.2,29.68,North,354,12.0,20.0,49,0.00,OVC,OVC,0.00,WeatherDisplay:10.31,2013-02-17 07:30:00,
2013-02-17 02:40:00,30.0,13.1,29.68,North,1,6.0,17.0,49,0.00,OVC,OVC,0.00,WeatherDisplay:10.31,2013-02-17 07:40:00,
2013-02-17 02:50:00,29.8,12.0,29.67,North,4,9.0,25.0,47,0.00,OVC,OVC,0.00,WeatherDisplay:10.31,2013-02-17 07:50:00,
2013-02-17 03:00:00,29.6,12.3,29.66,North,355,13.0,21.0,48,0.00,OVC,OVC,0.00,WeatherDisplay:10.31,2013-02-17 08:00:00,
2013-02-17 03:10:00,29.4,11.6,29.66,North,8,12.0,23.0,47,0.00,OVC,OVC,0.00,WeatherDisplay:10.31,2013-02-17 08:10:00,
2013-02-17 03:20:00,29.2,10.5,29.66,North,349,10.0,23.0,45,0.00,OVC,OVC,0.00,WeatherDisplay:10.31,2013-02-17 08:20:00,
2013-02-17 03:30:00,29.0,10.7,29.66,North,352,10.0,22.0,46,0.00,OVC,OVC,0.00,WeatherDisplay:10.31,2013-02-17 08:30:00,
2013-02-17 03:40:00,29.0,11.3,29.67,North,358,5.0,24.0,47,0.00,OVC,OVC,0.00,WeatherDisplay:10.31,2013-02-17 08:40:00,
2013-02-17 03:50:00,28.8,10.1,29.66,North,359,15.0,26.0,45,0.00,OVC,OVC,0.00,WeatherDisplay:10.31,2013-02-17 08:50:00,
2013-02-17 04:00:00,28.7,10.0,29.66,North,357,6.0,24.0,45,0.00,OVC,OVC,0.00,WeatherDisplay:10.31,2013-02-17 09:00:00,
2013-02-17 04:10:00,28.6,9.4,29.66,NNW,344,7.0,21.0,44,0.00,OVC,OVC,0.00,WeatherDisplay:10.31,2013-02-17 09:10:00,
2013-02-17 04:20:00,28.5,9.3,29.66,NNW,346,15.0,26.0,44,0.00,OVC,OVC,0.00,WeatherDisplay:10.31,2013-02-17 09:20:00,
2013-02-17 04:30:00,28.4,9.3,29.66,NNW,342,12.0,22.0,44,0.00,OVC,OVC,0.00,WeatherDisplay:10.31,2013-02-17 09:30:00,
2013-02-17 04:40:00,28.3,7.6,29.65,North,350,13.0,28.0,41,0.00,OVC,OVC,0.00,WeatherDisplay:10.31,2013-02-17 09:40:00,
2013-02-17 04:50:00,28.2,8.0,29.65,North,351,12.0,25.0,42,0.00,OVC,OVC,0.00,WeatherDisplay:10.31,2013-02-17 09:50:00,
2013-02-17 05:00:00,28.0,8.9,29.65,North,352,10.0,23.0,44,0.00,OVC,OVC,0.00,WeatherDisplay:10.31,2013-02-17 10:00:00,
2013-02-17 05:10:00,27.9,9.8,29.66,North,354,6.0,21.0,46,0.00,OVC,OVC,0.00,WeatherDisplay:10.31,2013-02-17 10:10:00,
2013-02-17 05:20:00,27.8,9.7,29.66,North,350,7.0,26.0,46,0.00,OVC,OVC,0.00,WeatherDisplay:10.31,2013-02-17 10:20:00,
2013-02-17 05:30:00,27.6,9.9,29.65,NNW,346,9.0,21.0,47,0.00,OVC,OVC,0.00,WeatherDisplay:10.31,2013-02-17 10:30:00,
2013-02-17 05:40:00,27.5,10.4,29.65,NNW,346,8.0,16.0,48,0.00,OVC,OVC,0.00,WeatherDisplay:10.31,2013-02-17 10:40:00,
2013-02-17 05:50:00,27.4,10.3,29.65,NNW,344,9.0,20.0,48,0.00,OVC,OVC,0.00,WeatherDisplay:10.31,2013-02-17 10:50:00,
2013-02-17 06:00:00,27.4,10.7,29.65,NNW,334,7.0,20.0,49,0.00,OVC,OVC,0.00,WeatherDisplay:10.31,2013-02-17 11:00:00,
2013-02-17 06:10:00,27.4,11.6,29.65,NNW,343,8.0,22.0,51,0.00,OVC,OVC,0.00,WeatherDisplay:10.31,2013-02-17 11:10:00,
2013-02-17 06:20:00,27.3,11.5,29.65,NNW,341,7.0,21.0,51,0.00,OVC,OVC,0.00,WeatherDisplay:10.31,2013-02-17 11:20:00,
2013-02-17 06:30:00,27.2,11.9,29.64,NNW,337,9.0,22.0,52,0.00,OVC,OVC,0.00,WeatherDisplay:10.31,2013-02-17 11:30:00,
2013-02-17 06:40:00,27.0,12.2,29.65,NNW,330,9.0,17.0,53,0.00,OVC,OVC,0.00,WeatherDisplay:10.31,2013-02-17 11:40:00,
2013-02-17 06:50:00,27.1,11.3,29.64,NNW,333,12.0,20.0,51,0.00,OVC,OVC,0.00,WeatherDisplay:10.31,2013-02-17 11:50:00,
2013-02-17 07:00:00,27.1,11.3,29.65,NNW,337,10.0,24.0,51,0.00,OVC,OVC,0.00,WeatherDisplay:10.31,2013-02-17 12:00:00,
2013-02-17 07:10:00,27.1,10.9,29.65,NNW,332,3.0,21.0,50,0.00,OVC,OVC,0.00,WeatherDisplay:10.31,2013-02-17 12:10:00,
2013-02-17 07:20:00,27.2,10.5,29.66,NNW,330,7.0,22.0,49,0.00,OVC,OVC,0.00,WeatherDisplay:10.31,2013-02-17 12:20:00,
2013-02-17 07:30:00,27.3,9.7,29.66,NW,326,9.0,20.0,47,0.00,OVC,OVC,0.00,WeatherDisplay:10.31,2013-02-17 12:30:00,
2013-02-17 07:40:00,27.5,8.9,29.66,NNW,332,13.0,21.0,45,0.00,OVC,OVC,0.00,WeatherDisplay:10.31,2013-02-17 12:40:00,
2013-02-17 07:50:00,27.6,9.0,29.66,NNW,327,12.0,20.0,45,0.00,OVC,OVC,0.00,WeatherDisplay:10.31,2013-02-17 12:50:00,
2013-02-17 08:00:00,27.7,9.6,29.66,NNW,339,9.0,21.0,46,0.00,OVC,OVC,0.00,WeatherDisplay:10.31,2013-02-17 13:00:00,
2013-02-17 08:10:00,27.9,8.8,29.65,NW,323,7.0,18.0,44,0.00,BKN,BKN,0.00,WeatherDisplay:10.31,2013-02-17 13:10:00,
2013-02-17 08:20:00,28.0,8.9,29.65,NW,325,10.0,23.0,44,0.00,BKN,BKN,0.00,WeatherDisplay:10.31,2013-02-17 13:20:00,
2013-02-17 08:30:00,28.1,8.4,29.65,NW,313,10.0,18.0,43,0.00,BKN,BKN,0.00,WeatherDisplay:10.31,2013-02-17 13:30:00,
2013-02-17 08:40:00,28.3,8.1,29.64,NW,318,10.0,18.0,42,0.00,BKN,BKN,0.00,WeatherDisplay:10.31,2013-02-17 13:40:00,
2013-02-17 08:50:00,28.3,6.5,29.64,NW,312,9.0,21.0,39,0.00,BKN,BKN,0.00,WeatherDisplay:10.31,2013-02-17 13:50:00,
2013-02-17 09:00:00,28.4,6.0,29.64,NW,313,8.0,18.0,38,0.00,BKN,BKN,0.00,WeatherDisplay:10.31,2013-02-17 14:00:00,
2013-02-17 09:10:00,28.7,6.3,29.64,NW,324,10.0,20.0,38,0.00,BKN,BKN,0.00,WeatherDisplay:10.31,2013-02-17 14:10:00,
2013-02-17 09:20:00,28.8,5.2,29.64,NW,314,12.0,21.0,36,0.00,BKN,BKN,0.00,WeatherDisplay:10.31,2013-02-17 14:20:00,
2013-02-17 09:30:00,29.2,5.5,29.64,NW,312,16.0,26.0,36,0.00,BKN,BKN,0.00,WeatherDisplay:10.31,2013-02-17 14:30:00,
2013-02-17 09:40:00,29.5,5.2,29.64,NW,318,9.0,23.0,35,0.00,BKN,BKN,0.00,WeatherDisplay:10.31,2013-02-17 14:40:00,
2013-02-17 09:50:00,29.5,5.2,29.65,NW,310,12.0,26.0,35,0.00,BKN,BKN,0.00,WeatherDisplay:10.31,2013-02-17 14:50:00,
2013-02-17 10:00:00,29.9,5.5,29.64,NW,311,14.0,24.0,35,0.00,BKN,BKN,0.00,WeatherDisplay:10.31,2013-02-17 15:00:00,
2013-02-17 10:10:00,30.2,5.1,29.64,NW,312,13.0,20.0,34,0.00,BKN,BKN,0.00,WeatherDisplay:10.31,2013-02-17 15:10:00,
2013-02-17 10:20:00,30.0,4.3,29.64,NW,305,9.0,28.0,33,0.00,BKN,BKN,0.00,WeatherDisplay:10.31,2013-02-17 15:20:00,
2013-02-17 10:30:00,30.1,5.0,29.65,NW,313,16.0,26.0,34,0.00,BKN,BKN,0.00,WeatherDisplay:10.31,2013-02-17 15:30:00,
2013-02-17 10:40:00,30.4,5.4,29.65,NW,320,12.0,32.0,34,0.00,BKN,BKN,0.00,WeatherDisplay:10.31,2013-02-17 15:40:00,
2013-02-17 10:50:00,30.6,4.9,29.66,NW,316,12.0,24.0,33,0.00,BKN,BKN,0.00,WeatherDisplay:10.31,2013-02-17 15:50:00,
2013-02-17 11:00:00,31.0,5.2,29.66,NW,311,14.0,23.0,33,0.00,BKN,BKN,0.00,WeatherDisplay:10.31,2013-02-17 16:00:00,
2013-02-17 11:10:00,31.4,5.6,29.66,NW,326,6.0,33.0,33,0.00,BKN,BKN,0.00,WeatherDisplay:10.31,2013-02-17 16:10:00,
2013-02-17 11:20:00,31.5,4.3,29.66,NW,322,14.0,24.0,31,0.00,BKN,BKN,0.00,WeatherDisplay:10.31,2013-02-17 16:20:00,
2013-02-17 11:30:00,30.9,3.8,29.66,NW,310,18.0,30.0,31,0.00,BKN,BKN,0.00,WeatherDisplay:10.31,2013-02-17 16:30:00,
2013-02-17 11:40:00,30.9,3.0,29.67,NW,308,18.0,30.0,30,0.00,BKN,BKN,0.00,WeatherDisplay:10.31,2013-02-17 16:40:00,
2013-02-17 11:50:00,31.7,3.7,29.67,NW,325,9.0,28.0,30,0.00,BKN,BKN,0.00,WeatherDisplay:10.31,2013-02-17 16:50:00,
2013-02-17 12:00:00,31.2,4.0,29.67,NW,318,15.0,25.0,31,0.00,BKN,BKN,0.00,WeatherDisplay:10.31,2013-02-17 17:00:00,
2013-02-17 12:10:00,31.5,4.3,29.67,NW,305,15.0,25.0,31,0.00,BKN,BKN,0.00,WeatherDisplay:10.31,2013-02-17 17:10:00,
2013-02-17 12:20:00,32.3,4.3,29.67,NW,317,14.0,29.0,30,0.00,BKN,BKN,0.00,WeatherDisplay:10.31,2013-02-17 17:20:00,
2013-02-17 12:30:00,32.1,4.1,29.67,NW,317,13.0,29.0,30,0.00,BKN,BKN,0.00,WeatherDisplay:10.31,2013-02-17 17:30:00,
2013-02-17 12:40:00,32.0,4.0,29.68,NW,318,14.0,30.0,30,0.00,BKN,BKN,0.00,WeatherDisplay:10.31,2013-02-17 17:40:00,
2013-02-17 12:50:00,32.6,4.6,29.67,WNW,303,14.0,32.0,30,0.00,BKN,BKN,0.00,WeatherDisplay:10.31,2013-02-17 17:50:00,
2013-02-17 13:00:00,32.7,3.9,29.68,NW,310,21.0,31.0,29,0.00,BKN,BKN,0.00,WeatherDisplay:10.31,2013-02-17 18:00:00,
2013-02-17 13:10:00,32.4,4.4,29.68,NW,311,15.0,26.0,30,0.00,BKN,BKN,0.00,WeatherDisplay:10.31,2013-02-17 18:10:00,
2013-02-17 13:20:00,33.1,5.0,29.68,NW,306,16.0,23.0,30,0.00,BKN,BKN,0.00,WeatherDisplay:10.31,2013-02-17 18:20:00,
2013-02-17 13:30:00,32.9,4.8,29.68,NW,317,12.0,24.0,30,0.00,BKN,BKN,0.00,WeatherDisplay:10.31,2013-02-17 18:30:00,
2013-02-17 13:40:00,33.2,5.0,29.69,WNW,298,15.0,26.0,30,0.00,BKN,BKN,0.00,WeatherDisplay:10.31,2013-02-17 18:40:00,
2013-02-17 13:50:00,32.6,5.3,29.69,NW,318,13.0,29.0,31,0.00,BKN,BKN,0.00,WeatherDisplay:10.31,2013-02-17 18:50:00,
2013-02-17 14:00:00,33.0,4.9,29.69,NW,306,13.0,25.0,30,0.00,BKN,BKN,0.00,WeatherDisplay:10.31,2013-02-17 19:00:00,
2013-02-17 14:10:00,32.1,4.8,29.69,NW,314,13.0,32.0,31,0.00,BKN,BKN,0.00,WeatherDisplay:10.31,2013-02-17 19:10:00,
2013-02-17 14:20:00,31.7,4.5,29.69,NW,304,13.0,28.0,31,0.00,BKN,BKN,0.00,WeatherDisplay:10.31,2013-02-17 19:20:00,
2013-02-17 14:30:00,31.5,4.3,29.70,NW,308,15.0,30.0,31,0.00,BKN,BKN,0.00,WeatherDisplay:10.31,2013-02-17 19:30:00,
2013-02-17 14:40:00,32.0,4.8,29.70,NW,313,9.0,28.0,31,0.00,BKN,BKN,0.00,WeatherDisplay:10.31,2013-02-17 19:40:00,
2013-02-17 14:50:00,32.2,4.2,29.70,NW,307,12.0,26.0,30,0.00,BKN,BKN,0.00,WeatherDisplay:10.31,2013-02-17 19:50:00,
2013-02-17 15:00:00,31.4,3.5,29.71,NW,306,13.0,28.0,30,0.00,BKN,BKN,0.00,WeatherDisplay:10.31,2013-02-17 20:00:00,
2013-02-17 15:10:00,31.5,2.8,29.71,NW,310,13.0,28.0,29,0.00,BKN,BKN,0.00,WeatherDisplay:10.31,2013-02-17 20:10:00,
2013-02-17 15:20:00,30.9,2.3,29.72,NW,311,10.0,33.0,29,0.00,BKN,BKN,0.00,WeatherDisplay:10.31,2013-02-17 20:20:00,
2013-02-17 15:30:00,31.0,2.4,29.72,NW,319,18.0,28.0,29,0.00,BKN,BKN,0.00,WeatherDisplay:10.31,2013-02-17 20:30:00,
2013-02-17 15:40:00,30.3,2.5,29.72,NW,316,15.0,32.0,30,0.00,BKN,BKN,0.00,WeatherDisplay:10.31,2013-02-17 20:40:00,
2013-02-17 15:50:00,30.1,3.1,29.73,NW,305,10.0,30.0,31,0.00,BKN,BKN,0.00,WeatherDisplay:10.31,2013-02-17 20:50:00,
2013-02-17 16:00:00,30.0,2.3,29.73,NW,313,14.0,30.0,30,0.00,BKN,BKN,0.00,WeatherDisplay:10.31,2013-02-17 21:00:00,
2013-02-17 16:10:00,29.9,2.9,29.74,NW,307,20.0,26.0,31,0.00,BKN,BKN,0.00,WeatherDisplay:10.31,2013-02-17 21:10:00,
2013-02-17 16:20:00,29.1,2.8,29.74,NW,306,15.0,26.0,32,0.00,BKN,BKN,0.00,WeatherDisplay:10.31,2013-02-17 21:20:00,
2013-02-17 16:30:00,28.9,2.7,29.74,NW,304,13.0,24.0,32,0.00,BKN,BKN,0.00,WeatherDisplay:10.31,2013-02-17 21:30:00,
2013-02-17 16:40:00,28.8,3.3,29.75,NW,321,14.0,35.0,33,0.00,BKN,BKN,0.00,WeatherDisplay:10.31,2013-02-17 21:40:00,
2013-02-17 16:50:00,28.2,3.4,29.76,NW,306,16.0,26.0,34,0.00,BKN,BKN,0.00,WeatherDisplay:10.31,2013-02-17 21:50:00,
2013-02-17 17:00:00,28.3,2.8,29.76,WNW,297,17.0,33.0,33,0.00,BKN,BKN,0.00,WeatherDisplay:10.31,2013-02-17 22:00:00,
2013-02-17 17:10:00,27.8,1.7,29.77,WNW,298,13.0,26.0,32,0.00,BKN,BKN,0.00,WeatherDisplay:10.31,2013-02-17 22:10:00,
2013-02-17 17:20:00,27.3,1.2,29.78,WNW,296,13.0,37.0,32,0.00,BKN,BKN,0.00,WeatherDisplay:10.31,2013-02-17 22:20:00,
2013-02-17 17:30:00,27.0,2.3,29.78,NW,306,16.0,33.0,34,0.00,BKN,BKN,0.00,WeatherDisplay:10.31,2013-02-17 22:30:00,
2013-02-17 17:40:00,26.8,3.4,29.79,NW,310,16.0,29.0,36,0.00,BKN,BKN,0.00,WeatherDisplay:10.31,2013-02-17 22:40:00,
2013-02-17 17:50:00,26.5,2.5,29.80,WNW,301,16.0,33.0,35,0.00,BKN,BKN,0.00,WeatherDisplay:10.31,2013-02-17 22:50:00,
2013-02-17 18:00:00,26.4,3.6,29.81,WNW,298,18.0,29.0,37,0.00,BKN,BKN,0.00,WeatherDisplay:10.31,2013-02-17 23:00:00,
2013-02-17 18:10:00,26.1,4.5,29.81,WNW,294,12.0,30.0,39,0.00,BKN,BKN,0.00,WeatherDisplay:10.31,2013-02-17 23:10:00,
2013-02-17 18:20:00,26.1,3.9,29.82,NW,306,15.0,26.0,38,0.00,BKN,BKN,0.00,WeatherDisplay:10.31,2013-02-17 23:20:00,
2013-02-17 18:30:00,25.8,2.5,29.82,NW,315,13.0,31.0,36,0.00,BKN,BKN,0.00,WeatherDisplay:10.31,2013-02-17 23:30:00,
2013-02-17 18:40:00,25.6,2.9,29.83,NW,306,20.0,32.0,37,0.00,BKN,BKN,0.00,WeatherDisplay:10.31,2013-02-17 23:40:00,
2013-02-17 18:50:00,25.2,2.0,29.84,WNW,303,17.0,31.0,36,0.00,BKN,BKN,0.00,WeatherDisplay:10.31,2013-02-17 23:50:00,
2013-02-17 19:00:00,24.9,2.8,29.85,WNW,297,10.0,28.0,38,0.00,BKN,BKN,0.00,WeatherDisplay:10.31,2013-02-18 00:00:00,
2013-02-17 19:10:00,24.6,2.5,29.85,NW,316,14.0,29.0,38,0.00,BKN,BKN,0.00,WeatherDisplay:10.31,2013-02-18 00:10:00,
2013-02-17 19:20:00,24.2,3.3,29.86,NW,321,15.0,32.0,40,0.00,BKN,BKN,0.00,WeatherDisplay:10.31,2013-02-18 00:20:00,
2013-02-17 19:30:00,23.9,3.6,29.86,NW,317,17.0,35.0,41,0.00,BKN,BKN,0.00,WeatherDisplay:10.31,2013-02-18 00:30:00,
2013-02-17 19:40:00,23.6,4.3,29.86,NW,310,17.0,25.0,43,0.00,BKN,BKN,0.00,WeatherDisplay:10.31,2013-02-18 00:40:00,
2013-02-17 19:50:00,23.4,3.6,29.87,WNW,301,17.0,28.0,42,0.00,BKN,BKN,0.00,WeatherDisplay:10.31,2013-02-18 00:50:00,
2013-02-17 20:00:00,23.1,3.4,29.87,WNW,297,14.0,30.0,42,0.00,BKN,BKN,0.00,WeatherDisplay:10.31,2013-02-18 01:00:00,
2013-02-17 20:10:00,22.7,3.0,29.87,WNW,295,16.0,33.0,42,0.00,BKN,BKN,0.00,WeatherDisplay:10.31,2013-02-18 01:10:00,
2013-02-17 20:20:00,22.6,2.9,29.87,WNW,301,12.0,35.0,42,0.00,SCT,SCT,0.00,WeatherDisplay:10.31,2013-02-18 01:20:00,
2013-02-17 20:30:00,22.2,3.1,29.89,WNW,301,10.0,30.0,43,0.00,SCT,SCT,0.00,WeatherDisplay:10.31,2013-02-18 01:30:00,
2013-02-17 20:40:00,22.1,3.0,29.90,NW,304,8.0,28.0,43,0.00,SCT,SCT,0.00,WeatherDisplay:10.31,2013-02-18 01:40:00,
2013-02-17 20:50:00,21.8,3.2,29.90,WNW,295,16.0,30.0,44,0.00,SCT,SCT,0.00,WeatherDisplay:10.31,2013-02-18 01:50:00,
2013-02-17 21:00:00,21.7,3.1,29.91,WNW,301,13.0,26.0,44,0.00,SCT,SCT,0.00,WeatherDisplay:10.31,2013-02-18 02:00:00,
2013-02-17 21:10:00,21.6,3.0,29.91,NW,306,13.0,32.0,44,0.00,FEW,FEW,0.00,WeatherDisplay:10.31,2013-02-18 02:10:00,
2013-02-17 21:20:00,21.1,2.6,29.92,WNW,302,12.0,26.0,44,0.00,FEW,FEW,0.00,WeatherDisplay:10.31,2013-02-18 02:20:00,
2013-02-17 21:30:00,20.8,2.8,29.92,NW,313,9.0,26.0,45,0.00,FEW,FEW,0.00,WeatherDisplay:10.31,2013-02-18 02:30:00,
2013-02-17 21:40:00,20.4,3.3,29.92,NW,306,13.0,24.0,47,0.00,FEW,FEW,0.00,WeatherDisplay:10.31,2013-02-18 02:40:00,
2013-02-17 21:50:00,19.9,1.0,29.94,NW,304,13.0,33.0,43,0.00,FEW,FEW,0.00,WeatherDisplay:10.31,2013-02-18 02:50:00,
2013-02-17 22:00:00,19.3,0.9,29.94,WNW,298,10.0,29.0,44,0.00,FEW,FEW,0.00,WeatherDisplay:10.31,2013-02-18 03:00:00,
2013-02-17 22:10:00,18.9,0.5,29.95,NW,311,10.0,37.0,44,0.00,FEW,FEW,0.00,WeatherDisplay:10.31,2013-02-18 03:10:00,
2013-02-17 22:20:00,18.6,0.7,29.95,NW,305,13.0,30.0,45,0.00,FEW,FEW,0.00,WeatherDisplay:10.31,2013-02-18 03:20:00,
2013-02-17 22:30:00,18.5,0.7,29.95,NW,310,15.0,30.0,45,0.00,FEW,FEW,0.00,WeatherDisplay:10.31,2013-02-18 03:30:00,
2013-02-17 22:40:00,18.5,1.1,29.96,NW,315,12.0,28.0,46,0.00,FEW,FEW,0.00,WeatherDisplay:10.31,2013-02-18 03:40:00,
2013-02-17 22:50:00,18.4,1.5,29.96,NW,309,12.0,25.0,47,0.00,FEW,FEW,0.00,WeatherDisplay:10.31,2013-02-18 03:50:00,
2013-02-17 23:00:00,18.4,1.5,29.96,NW,306,16.0,25.0,47,0.00,FEW,FEW,0.00,WeatherDisplay:10.31,2013-02-18 04:00:00,
2013-02-17 23:10:00,18.4,1.5,29.96,WNW,295,15.0,37.0,47,0.00,FEW,FEW,0.00,WeatherDisplay:10.31,2013-02-18 04:10:00,
2013-02-17 23:20:00,18.5,1.6,29.97,WNW,301,13.0,32.0,47,0.00,CLR,CLR,0.00,WeatherDisplay:10.31,2013-02-18 04:20:00,
2013-02-17 23:30:00,18.5,2.0,29.97,NW,308,14.0,28.0,48,0.00,CLR,CLR,0.00,WeatherDisplay:10.31,2013-02-18 04:30:00,
2013-02-17 23:40:00,18.5,2.0,29.97,WNW,299,16.0,26.0,48,0.00,CLR,CLR,0.00,WeatherDisplay:10.31,2013-02-18 04:40:00,
2013-02-17 23:50:00,18.6,2.1,29.97,NW,304,15.0,31.0,48,0.00,CLR,CLR,0.00,WeatherDisplay:10.31,2013-02-18 04:50:00,